Beaumont / Port Arthur, TX

8:38 PM CDT on July 24, 2017 (GMT -0500)
Beaumont Municipal

Weather History for KBMT - January, 2013

Change the Weather History Date:

Friday, January 11, 2013

  Actual Average (KBPT) Record (KBPT)
Temperature  
Mean Temperature 66 °F -  
Max Temperature 71 °F 57 °F 80 °F (2017)
Min Temperature 60 °F 40 °F 15 °F (1982)
Growing Degree Days 16 (Base 50)    
Moisture  
Dew Point 56 °F    
Average Humidity 75    
Maximum Humidity 94    
Minimum Humidity 41    
Precipitation  
Precipitation 0.00 in - - ()
Sea Level Pressure  
Sea Level Pressure 29.93 in    
Wind  
Wind Speed 7 mph (SE)    
Max Wind Speed 10 mph    
Max Gust Speed -    
Visibility 6 miles    
Events Fog    
Averages and records for this station are not official NWS values.
T = Trace of Precipitation, MM = Missing Value Source: NWS Daily Summary

Daily Weather History Graph

Daily Weather History Graph

Search for Another Location

Airport or City:

Trip Planner

Search our weather history database for the weather conditions in past years. The results will help you decide how hot, cold, wet, or windy it might be!

Date:

Astronomy

Jan. 11, 2013 Rise Set
Actual Time 7:13 AM CST 5:36 PM CST
Civil Twilight 6:48 AM CST 6:02 PM CST
Nautical Twilight 6:18 AM CST 6:31 PM CST
Astronomical Twilight 5:49 AM CST 7:00 PM CST
Moon 6:50 AM CST (1/11) 5:50 PM CST (1/11)
Length of Visible Light 11h 14m
Length of Day
10h 22m
Waning Crescent, 0% of the Moon is Illuminated
Jan 11
Waning Crescent
Jan 11
New
Jan 18
First Quarter
Jan 26
Full
Feb 3
Last Quarter

Hourly Weather History & Observations

Time (CST) Temp. Dew Point Humidity Pressure Visibility Wind Dir Wind Speed Gust Speed Precip Events Conditions
2:15 PM 71.6 °F 46.4 °F 41% 29.94 in 10.0 mi SE 9.2 mph - N/A   Scattered Clouds
2:35 PM 69.8 °F 50.0 °F 49% 29.94 in 10.0 mi SSE 8.1 mph - N/A   Overcast
2:55 PM 69.8 °F 50.0 °F 49% 29.94 in 10.0 mi SE 6.9 mph - N/A   Overcast
3:15 PM 69.8 °F 50.0 °F 49% 29.93 in 10.0 mi SSE 6.9 mph - N/A   Overcast
3:35 PM 68.0 °F 50.0 °F 52% 29.94 in 10.0 mi SE 5.8 mph - N/A   Overcast
3:55 PM 68.0 °F 50.0 °F 52% 29.93 in 10.0 mi SE 6.9 mph - N/A   Overcast
4:15 PM 66.2 °F 50.0 °F 56% 29.94 in 10.0 mi SSE 5.8 mph - N/A   Overcast
4:35 PM 64.4 °F 50.0 °F 59% 29.94 in 10.0 mi SE 5.8 mph - N/A   Overcast
5:15 PM 62.6 °F 53.6 °F 72% 29.94 in 10.0 mi SE 5.8 mph - N/A   Overcast
5:35 PM 62.6 °F 53.6 °F 72% 29.94 in 10.0 mi SE 10.4 mph - N/A   Overcast
5:55 PM 62.6 °F 53.6 °F 72% 29.94 in 10.0 mi SE 9.2 mph - N/A   Overcast
6:15 PM 60.8 °F 55.4 °F 82% 29.94 in 10.0 mi SE 6.9 mph - N/A   Overcast
6:35 PM 60.8 °F 55.4 °F 82% 29.94 in 4.0 mi SE 8.1 mph - N/A   Overcast
6:55 PM 60.8 °F 55.4 °F 82% 29.94 in 5.0 mi ESE 5.8 mph - N/A   Overcast
7:15 PM 60.8 °F 57.2 °F 88% 29.93 in 7.0 mi ESE 8.1 mph - N/A   Overcast
7:35 PM 60.8 °F 57.2 °F 88% 29.93 in 7.0 mi ESE 8.1 mph - N/A   Overcast
7:55 PM 60.8 °F 59.0 °F 94% 29.93 in 5.0 mi ESE 9.2 mph - N/A   Overcast
8:15 PM 62.6 °F 59.0 °F 88% 29.93 in 4.0 mi SE 4.6 mph - N/A   Overcast
8:35 PM 62.6 °F 59.0 °F 88% 29.93 in 2.0 mi ESE 4.6 mph - N/A   Overcast
8:55 PM 62.6 °F 60.8 °F 94% 29.93 in 3.0 mi SE 4.6 mph - N/A   Overcast
9:15 PM 62.6 °F 60.8 °F 94% 29.93 in 2.5 mi SE 4.6 mph - N/A   Overcast
9:35 PM 64.4 °F 60.8 °F 88% 29.93 in 1.2 mi SE 3.5 mph - N/A   Overcast
9:55 PM 64.4 °F 60.8 °F 88% 29.94 in 0.8 mi ESE 3.5 mph - N/A   Overcast
10:15 PM 64.4 °F 60.8 °F 88% 29.93 in 0.5 mi ESE 5.8 mph - N/A Fog Fog
10:35 PM 64.4 °F 62.6 °F 94% 29.93 in 0.5 mi SE 4.6 mph - N/A Fog Fog
11:35 PM 66.2 °F 62.6 °F 88% 29.92 in 0.5 mi SSE 5.8 mph - N/A Fog Fog